Location: Melque
(41.0517°N, 4.4694°W)
Time: 21:52:01
(UTC+00:00)

Aureole 1 Rocket - Pass Details

Date: 11 December 2025
Orbit: 372 x 1168 km, 73.9° (Epoch: 12 January)

Event Time Altitude Azimuth Distance (km) Brightness Sun altitude
Rises 18:53:44 0° 214° (SW) 2,691 7.0 -22.6°
Reaches altitude 10° 18:55:45 10° 221° (SW) 1,907 6.2 -23.0°
Maximum altitude 18:59:53 48° 296° (WNW) 896 4.1 -23.8°
Enters shadow 19:03:22 19° 3° (N) 1,765 5.2 -24.4°
